Wind_Speed
35 34 35 36 39 42 42 43 45 48 49 49 50 52 52 51 49 49 48 47 48 48 43 33 27 28 34 37 38 42 42 39 40 38 36 36 34 34 33 32 31 32 33 34 36 35 35 34 34 34 34 34
36 35 34 34 36 39 40 40 42 45 47 47 47 48 49 49 47 45 45 45 45 44 44 42 35 31 28 29 35 41 43 41 40 39 38 38 37 37 36 34 33 33 34 34 35 37 36 34 34 35 35 35
37 37 36 36 36 38 40 40 40 41 45 47 46 45 45 46 46 43 42 42 43 42 43 48 46 41 33 28 30 35 39 41 40 39 38 38 39 40 40 38 36 35 35 34 34 35 35 35 35 35 35 36
38 38 38 38 37 38 40 41 41 41 43 46 47 46 44 43 43 42 40 39 41 40 42 48 49 46 42 34 29 29 33 38 41 41 39 38 38 40 42 42 39 38 37 36 35 34 35 37 38 36 36 37
38 38 38 39 39 39 39 41 43 43 43 45 47 48 45 43 42 41 40 38 38 38 38 46 48 45 45 42 36 30 29 33 39 42 41 40 40 40 42 43 42 41 40 39 38 37 36 39 40 38 37 37
37 38 38 39 39 39 40 41 43 44 44 45 46 48 48 46 42 40 40 39 38 37 36 41 47 46 44 44 42 37 32 29 32 37 39 41 41 41 41 42 43 44 44 42 41 40 40 41 41 39 38 38
35 37 38 39 39 40 40 41 43 44 45 45 46 48 49 49 47 43 40 39 38 38 36 37 43 46 45 44 45 44 41 36 31 30 34 39 40 39 40 41 43 46 47 46 43 43 43 43 42 42 41 39
33 34 36 37 38 40 40 41 42 44 45 46 46 47 49 50 50 48 44 41 39 39 37 35 39 44 46 45 45 46 47 46 42 35 32 37 38 36 38 40 41 43 46 47 45 45 46 45 44 45 45 43
34 34 35 35 36 38 39 41 42 43 45 46 46 47 48 49 50 50 48 45 41 39 39 37 37 41 44 46 46 47 48 48 48 45 38 36 36 34 36 38 38 39 42 45 45 46 47 48 46 46 46 45
35 36 36 36 35 35 36 38 41 43 45 46 47 47 48 48 49 50 49 48 45 42 40 39 37 38 42 45 46 47 48 48 47 48 46 42 39 37 35 35 33 34 37 41 44 45 47 49 48 47 48 47
35 36 36 37 37 36 35 36 38 41 44 46 47 48 48 49 49 49 49 48 47 45 43 42 39 38 40 43 46 47 48 48 48 48 48 48 46 44 42 39 35 32 32 36 41 43 44 48 50 50 49 48
34 34 35 36 37 37 36 36 36 38 42 45 47 49 49 49 50 50 50 48 47 45 44 43 43 41 40 41 44 46 48 49 49 50 49 49 51 52 50 49 46 40 34 33 35 38 40 44 49 51 51 50
33 33 33 34 35 36 37 37 37 37 39 42 46 49 51 51 51 51 50 49 48 46 44 44 44 44 43 42 42 44 47 48 49 50 51 51 51 53 54 54 55 52 45 39 35 34 35 39 44 48 51 52
34 35 36 36 37 37 37 38 38 38 38 39 42 46 50 52 52 52 52 51 50 48 46 44 44 45 45 44 43 42 44 47 48 50 51 52 51 52 54 54 56 57 55 49 44 39 35 35 39 44 48 49
37 39 40 40 40 40 40 40 39 39 38 38 39 41 45 49 52 52 52 52 52 50 48 46 45 45 45 46 45 44 44 45 46 47 49 52 53 53 54 54 54 56 56 54 52 49 44 38 36 40 46 47
40 41 42 42 42 41 41 41 41 41 39 37 37 39 40 43 46 50 52 52 53 52 50 49 47 46 45 46 46 46 46 45 45 46 47 49 52 53 54 54 53 53 53 52 53 53 52 48 42 39 41 44
41 42 42 42 41 40 39 40 41 42 42 40 37 37 39 39 41 44 47 50 51 52 52 51 50 48 47 46 46 47 47 47 48 47 47 47 49 52 54 55 54 53 52 51 51 52 53 54 51 46 41 39
40 41 41 40 40 39 38 38 39 40 42 42 40 37 37 38 39 40 41 44 47 49 51 51 51 51 50 48 47 47 48 49 49 50 50 49 48 49 51 54 55 55 53 51 50 50 52 54 55 53 50 44
39 40 40 39 38 38 37 37 37 39 40 41 41 39 37 37 38 39 39 39 41 44 47 50 51 52 51 51 49 48 48 49 50 51 52 52 51 49 50 52 54 56 55 53 51 51 52 54 55 56 55 52
38 38 39 38 37 37 37 37 37 37 39 41 41 41 39 37 37 38 39 38 36 37 41 45 49 51 52 52 51 50 49 48 49 51 52 53 54 53 51 51 52 55 57 57 55 53 53 54 55 57 57 55
37 38 38 37 36 36 36 36 36 36 37 39 39 40 40 38 36 36 37 38 36 33 34 38 43 48 51 52 52 52 51 50 50 50 51 52 54 56 55 53 53 53 56 58 58 56 55 55 55 55 57 58
36 37 37 36 35 34 34 35 36 35 34 36 37 37 39 38 35 34 34 36 36 33 31 32 36 41 46 50 52 52 52 52 51 51 51 51 52 55 57 57 56 54 54 56 58 57 56 55 56 55 55 57
35 36 37 35 33 32 33 34 35 34 32 33 34 35 36 36 34 33 32 33 34 34 30 29 31 34 39 44 48 50 51 52 53 53 52 52 52 52 55 57 58 58 56 55 56 57 56 55 55 55 55 55
35 36 36 35 32 31 30 31 32 32 31 31 31 32 33 33 32 32 31 30 31 33 31 28 28 30 32 36 41 45 48 50 52 54 54 53 53 52 53 55 58 59 59 58 57 56 56 55 54 53 53 52
35 35 36 35 32 30 29 29 29 29 29 29 29 29 30 30 30 30 29 28 28 31 31 30 29 29 29 31 34 39 43 46 49 52 54 55 54 54 53 53 55 58 60 60 59 59 57 55 54 53 52 51
34 34 35 35 33 30 29 28 28 27 26 26 27 27 27 27 27 26 26 26 27 28 30 30 30 30 31 32 32 35 38 41 45 47 51 53 55 56 55 54 54 55 58 60 60 60 59 57 54 53 53 52
33 33 34 34 33 31 29 28 28 27 26 24 24 25 25 24 24 23 21 22 24 27 29 30 31 32 33 34 35 35 36 38 40 42 45 49 52 54 56 56 55 55 56 58 60 60 61 60 57 55 54 54
32 32 32 33 32 31 30 28 27 27 25 24 22 22 23 22 21 20 18 17 19 22 25 28 30 33 34 36 37 38 38 39 39 40 42 44 47 50 53 56 56 56 56 57 58 59 60 61 60 57 56 56
31 31 31 31 31 30 29 28 28 26 25 24 22 20 20 20 19 18 17 15 15 16 18 22 25 28 30 32 34 36 38 39 40 41 42 42 44 46 49 53 55 56 56 57 58 60 59 59 61 61 58 57
31 31 30 29 29 29 28 27 27 26 24 23 21 20 18 18 18 17 16 15 14 15 16 18 20 23 25 26 28 30 32 34 36 38 40 42 43 44 45 48 51 54 56 57 58 60 60 60 61 62 60 58
30 30 29 28 28 27 26 26 26 24 22 21 20 19 18 17 16 15 15 14 14 14 15 16 18 19 21 23 24 26 27 29 31 33 35 38 41 43 45 46 47 50 52 55 57 59 61 62 61 61 61 60
Wind_Direction
287 283 278 274 272 273 273 272 271 271 272 274 276 276 277 278 277 273 268 262 257 255 251 242 236 230 225 223 222 228 233 235 235 234 231 229 230 230 230 232 232 233 233 229 227 228 231 233 234 234 236 237
287 283 280 276 273 273 274 274 272 271 272 273 276 278 279 281 281 279 274 269 263 258 249 241 244 244 235 226 222 226 233 236 237 237 234 230 230 230 229 231 231 232 233 231 227 227 229 231 233 231 231 234
289 285 281 278 274 272 273 274 274 272 272 272 274 277 279 280 283 283 278 273 269 263 252 244 245 248 244 235 227 226 232 239 239 238 239 237 235 231 228 228 229 230 231 230 227 227 229 231 232 231 230 233
292 288 283 280 277 273 272 272 273 273 271 271 272 275 277 278 280 283 282 277 273 269 259 252 252 250 246 241 234 225 226 235 240 242 244 243 241 236 233 230 227 226 228 230 231 231 230 231 232 232 231 231
292 289 285 282 278 275 273 272 273 273 272 270 270 272 274 275 275 279 281 279 274 271 264 260 261 257 249 245 241 232 225 228 235 240 244 246 242 237 235 232 228 225 225 227 231 232 232 231 231 231 231 230
293 289 286 283 280 277 274 273 272 273 273 271 270 270 271 273 272 273 275 277 275 272 266 262 265 265 258 250 245 238 232 229 229 231 236 242 239 232 230 229 228 226 224 224 227 230 230 229 230 230 230 228
297 292 287 284 281 278 275 273 272 272 273 273 272 271 271 271 271 270 270 271 272 271 268 261 263 266 264 257 251 245 239 236 235 228 224 231 232 228 227 226 223 223 223 222 223 227 228 228 229 229 229 229
302 297 292 287 282 279 276 274 273 271 272 273 273 272 272 271 272 271 269 268 267 268 268 262 258 262 264 261 257 252 248 244 242 239 226 222 226 225 225 226 222 220 221 221 221 224 226 226 227 227 227 228
303 301 298 294 288 283 278 275 273 271 270 270 271 272 272 271 271 272 270 268 266 264 265 264 257 255 259 260 259 256 255 253 248 245 239 226 225 224 223 224 224 221 218 219 220 222 223 223 224 226 226 226
303 301 300 298 295 290 284 278 273 271 269 269 269 269 270 271 271 271 271 269 267 264 262 262 259 253 252 254 257 256 255 257 255 251 247 239 231 228 226 225 226 225 219 215 217 219 221 221 221 224 226 226
302 299 298 297 295 294 290 284 276 271 269 268 268 268 268 269 269 269 269 269 268 265 261 259 259 254 249 248 250 253 254 255 256 254 251 247 241 236 233 232 234 235 228 218 214 213 215 218 220 222 225 227
303 301 298 297 295 293 290 286 281 275 270 267 266 267 267 267 267 267 267 267 267 266 263 258 257 255 251 247 245 247 250 251 253 254 253 250 248 246 242 239 240 242 239 230 220 214 210 212 217 220 223 226
305 304 302 300 298 294 291 286 282 278 274 269 266 265 265 266 266 266 265 265 265 264 263 260 256 255 252 250 246 243 244 247 249 251 252 252 250 251 250 247 246 246 246 240 233 224 216 211 214 218 222 226
308 307 306 304 301 298 294 290 285 280 276 272 269 266 264 264 264 265 264 263 263 262 262 261 257 255 252 251 249 245 243 243 245 246 248 251 252 251 253 254 252 251 250 247 242 237 230 221 216 217 221 225
311 310 309 307 304 301 298 294 290 285 280 274 271 270 267 264 263 263 263 263 262 261 260 259 258 256 254 252 252 249 246 244 244 244 244 246 249 250 252 255 255 255 255 253 249 245 242 236 227 220 220 224
314 313 311 309 307 305 302 299 296 292 288 283 276 273 270 267 265 263 262 262 262 262 260 259 258 257 255 254 254 252 250 248 246 245 244 243 245 247 249 252 254 255 256 256 253 251 247 244 240 230 222 223
316 315 313 310 308 307 305 303 300 297 294 291 286 281 276 271 269 266 263 262 262 262 261 260 258 257 256 255 254 254 253 251 249 247 246 245 244 245 246 248 252 253 254 254 253 253 251 248 245 240 233 228
317 316 314 311 309 308 307 305 302 299 296 294 292 289 283 277 272 270 267 264 262 261 260 260 260 259 257 255 254 253 253 252 251 249 247 247 245 244 244 245 247 250 252 252 251 251 250 249 247 245 241 239
319 318 316 312 310 309 308 305 302 298 296 294 293 291 288 283 276 272 270 268 264 261 260 259 259 259 258 257 255 253 252 252 252 251 249 248 247 245 244 243 244 246 248 250 250 249 248 249 248 247 245 243
322 321 318 314 311 310 308 305 301 297 295 293 293 292 290 287 282 276 271 270 268 265 261 258 257 257 257 258 257 255 253 252 252 252 251 250 249 247 245 244 243 243 244 246 248 248 247 247 247 246 246 245
324 324 321 317 313 310 308 305 301 297 294 293 293 293 292 290 287 281 274 269 268 267 264 261 258 255 255 255 256 256 255 254 252 251 251 251 251 250 248 246 244 243 243 243 244 246 246 246 247 246 245 244
324 325 323 319 314 310 307 305 303 300 298 296 295 294 293 292 290 286 278 269 265 266 266 264 261 257 255 254 254 254 255 255 254 253 251 251 250 251 250 249 247 245 243 242 242 243 244 244 244 245 244 242
324 325 324 320 315 311 308 306 304 303 302 300 298 296 295 295 293 288 283 275 266 263 264 265 263 261 258 255 254 253 253 253 254 254 253 252 251 250 250 251 250 249 246 244 243 242 242 242 242 242 243 242
323 325 325 322 318 312 309 307 304 303 304 303 301 301 299 297 295 290 285 278 269 262 261 262 262 261 260 257 256 255 254 253 253 254 254 254 253 251 250 251 251 251 249 247 245 244 243 242 242 241 242 243
322 324 324 324 321 315 312 309 305 303 303 303 304 304 303 301 299 295 286 277 268 261 258 260 261 261 260 258 256 256 255 255 253 253 253 254 254 253 251 251 251 252 251 250 247 245 244 244 243 242 242 243
321 322 323 325 323 318 314 312 309 307 304 303 303 304 305 305 304 302 292 277 265 258 256 257 260 261 261 260 258 257 256 257 256 255 253 253 253 253 252 251 250 251 252 252 250 247 245 245 245 244 244 243
318 320 322 325 325 321 317 314 313 311 308 305 304 304 306 306 306 307 301 284 268 258 255 256 259 262 262 263 262 261 260 259 259 258 256 255 253 253 252 252 251 250 251 252 252 250 248 246 245 245 245 245
315 318 320 323 325 323 319 317 315 313 310 307 306 306 306 307 308 308 307 297 281 268 262 261 263 265 267 267 267 267 265 263 262 261 259 257 256 254 253 252 251 250 249 250 251 252 250 249 248 245 244 245
312 315 318 321 323 324 322 319 316 314 312 310 309 308 307 308 309 309 308 303 294 284 275 271 270 270 271 271 271 270 269 267 265 263 261 259 257 256 254 252 252 251 250 249 249 250 250 250 250 248 245 244
309 312 315 318 321 324 323 319 316 315 314 312 311 310 308 307 308 308 306 302 296 290 284 279 277 276 275 274 274 273 272 270 268 266 263 261 259 257 256 254 252 251 250 249 248 248 249 249 250 250 248 246
305 308 312 315 318 322 323 318 316 315 313 312 311 310 310 308 306 305 303 300 297 292 288 285 282 281 280 279 278 277 276 274 272 270 267 264 261 259 257 256 253 251 250 249 249 248 248 248 248 249 249 249
Height
3078 3077 3076 3076 3074 3073 3072 3071 3070 3068 3067 3065 3064 3062 3059 3059 3060 3061 3063 3064 3066 3066 3068 3068 3067 3067 3068 3068 3069 3069 3070 3071 3072 3073 3075 3078 3079 3081 3082 3083 3086 3088 3090 3091 3092 3092 3093 3093 3095 3096 3097 3099
3075 3074 3073 3072 3071 3069 3068 3067 3066 3064 3063 3062 3061 3059 3057 3055 3055 3057 3058 3059 3060 3061 3062 3062 3062 3062 3063 3063 3063 3063 3064 3066 3067 3069 3071 3073 3075 3077 3078 3079 3081 3083 3086 3087 3088 3090 3090 3091 3091 3092 3093 3094
3072 3071 3070 3069 3068 3067 3065 3063 3062 3061 3059 3057 3057 3056 3056 3053 3052 3052 3053 3053 3054 3055 3056 3056 3056 3058 3059 3059 3058 3058 3059 3061 3063 3065 3067 3069 3071 3072 3074 3075 3077 3079 3081 3083 3084 3086 3087 3089 3088 3089 3090 3091
3069 3068 3067 3066 3065 3064 3062 3060 3059 3057 3056 3054 3052 3052 3052 3051 3049 3048 3049 3049 3049 3050 3051 3051 3051 3053 3054 3054 3053 3053 3054 3056 3058 3060 3062 3065 3066 3068 3069 3071 3073 3075 3076 3078 3080 3082 3084 3085 3085 3085 3087 3088
3066 3065 3064 3063 3062 3061 3059 3058 3056 3054 3053 3051 3049 3047 3047 3047 3047 3045 3045 3045 3046 3047 3048 3047 3047 3048 3048 3048 3048 3049 3050 3051 3053 3056 3058 3060 3062 3063 3064 3066 3068 3070 3071 3073 3076 3078 3079 3080 3081 3083 3084 3084
3062 3061 3060 3059 3058 3057 3056 3055 3053 3051 3049 3048 3046 3044 3042 3042 3042 3042 3041 3041 3041 3043 3044 3044 3042 3042 3042 3042 3043 3045 3046 3047 3049 3051 3053 3056 3058 3059 3059 3061 3063 3065 3067 3068 3071 3073 3075 3076 3078 3079 3080 3081
3058 3057 3056 3055 3054 3053 3052 3051 3050 3048 3046 3044 3043 3041 3039 3037 3036 3037 3037 3036 3036 3036 3038 3039 3037 3036 3036 3036 3038 3040 3041 3043 3045 3046 3048 3051 3053 3054 3055 3056 3058 3060 3062 3063 3065 3068 3070 3072 3073 3075 3076 3077
3055 3053 3051 3050 3049 3048 3047 3046 3046 3044 3042 3040 3039 3037 3036 3034 3032 3031 3032 3032 3032 3031 3032 3033 3033 3032 3032 3033 3034 3035 3036 3038 3040 3042 3043 3046 3048 3049 3051 3052 3053 3055 3056 3058 3060 3062 3065 3067 3068 3070 3072 3074
3051 3049 3047 3045 3044 3043 3042 3041 3041 3039 3038 3036 3035 3033 3031 3030 3028 3027 3026 3027 3028 3028 3028 3028 3029 3029 3029 3029 3031 3032 3032 3033 3035 3037 3038 3041 3043 3044 3046 3048 3049 3050 3051 3053 3055 3057 3059 3061 3064 3066 3068 3070
3048 3045 3043 3041 3039 3038 3037 3036 3035 3033 3033 3032 3031 3029 3028 3026 3025 3023 3023 3022 3023 3024 3024 3024 3025 3025 3025 3026 3027 3029 3029 3029 3030 3032 3034 3035 3037 3039 3041 3043 3044 3046 3047 3048 3049 3051 3054 3056 3058 3061 3063 3065
3044 3042 3040 3038 3035 3034 3032 3030 3029 3028 3027 3026 3025 3024 3023 3022 3020 3019 3019 3018 3018 3018 3020 3021 3021 3022 3022 3022 3023 3024 3026 3026 3026 3027 3029 3030 3032 3034 3036 3038 3040 3041 3042 3043 3045 3046 3048 3050 3053 3056 3058 3061
3041 3039 3037 3034 3032 3030 3027 3025 3023 3022 3021 3020 3019 3018 3018 3017 3016 3015 3014 3014 3013 3013 3014 3016 3017 3018 3019 3019 3019 3020 3021 3022 3022 3023 3024 3026 3027 3028 3030 3032 3034 3036 3038 3039 3040 3042 3043 3045 3047 3051 3054 3056
3038 3036 3034 3031 3029 3026 3023 3021 3018 3016 3015 3014 3013 3012 3011 3011 3011 3010 3009 3009 3009 3009 3009 3010 3012 3014 3015 3016 3015 3016 3016 3017 3018 3019 3020 3021 3023 3024 3025 3026 3028 3030 3033 3035 3036 3038 3039 3040 3042 3045 3048 3051
3035 3032 3030 3028 3025 3022 3019 3017 3014 3012 3010 3009 3007 3006 3005 3004 3004 3004 3004 3004 3004 3004 3004 3005 3006 3007 3009 3011 3011 3012 3012 3012 3013 3014 3015 3017 3019 3020 3020 3021 3023 3024 3026 3029 3031 3033 3035 3037 3039 3041 3044 3047
3031 3029 3026 3023 3020 3017 3015 3012 3009 3007 3005 3004 3002 3000 2999 2998 2998 2998 2998 2998 2998 2999 3000 3000 3001 3001 3003 3004 3006 3007 3007 3007 3007 3008 3010 3012 3014 3016 3016 3017 3018 3019 3020 3023 3026 3029 3031 3033 3035 3037 3040 3043
3027 3024 3021 3018 3015 3013 3010 3007 3004 3002 3000 2999 2998 2996 2994 2993 2992 2992 2992 2992 2993 2994 2995 2995 2995 2996 2998 2999 3000 3000 3001 3002 3002 3003 3005 3007 3009 3010 3012 3012 3013 3014 3016 3017 3020 3023 3026 3028 3031 3033 3036 3038
3023 3020 3017 3014 3011 3008 3005 3003 2999 2997 2995 2993 2993 2991 2989 2988 2987 2987 2986 2987 2988 2989 2989 2989 2990 2991 2993 2993 2994 2994 2995 2997 2998 2999 3000 3001 3003 3005 3006 3007 3008 3009 3011 3013 3016 3018 3021 3024 3027 3029 3032 3034
3021 3018 3014 3011 3007 3004 3001 2999 2996 2993 2990 2988 2987 2986 2985 2983 2982 2982 2981 2982 2983 2983 2983 2984 2985 2986 2987 2988 2989 2990 2991 2992 2993 2995 2996 2997 2998 3000 3001 3002 3003 3004 3006 3008 3011 3014 3016 3019 3022 3025 3027 3030
3019 3015 3011 3008 3004 3000 2998 2995 2992 2990 2987 2984 2982 2981 2980 2979 2977 2977 2977 2977 2978 2977 2978 2979 2979 2980 2981 2982 2984 2985 2986 2987 2988 2989 2991 2992 2993 2994 2995 2996 2998 2999 3001 3003 3006 3009 3011 3014 3016 3019 3022 3025
3016 3012 3008 3004 3000 2997 2994 2992 2989 2986 2983 2981 2978 2976 2975 2974 2973 2972 2972 2973 2973 2973 2973 2973 2974 2975 2976 2977 2978 2980 2981 2982 2983 2984 2985 2987 2988 2989 2990 2991 2992 2994 2996 2998 3000 3003 3006 3008 3011 3014 3017 3020
3013 3009 3005 3001 2997 2994 2991 2988 2986 2983 2980 2977 2975 2972 2970 2969 2969 2968 2968 2968 2968 2969 2969 2968 2969 2969 2970 2972 2973 2974 2975 2977 2978 2979 2980 2981 2982 2983 2985 2986 2987 2989 2990 2993 2995 2997 3000 3003 3005 3008 3012 3015
3010 3006 3002 2998 2995 2991 2988 2985 2982 2979 2977 2974 2971 2969 2966 2965 2965 2964 2963 2963 2964 2964 2965 2965 2965 2965 2965 2966 2968 2969 2970 2971 2972 2974 2975 2976 2978 2979 2980 2982 2983 2984 2986 2987 2990 2992 2995 2997 3000 3003 3006 3009
3007 3003 2999 2996 2992 2989 2986 2982 2978 2976 2974 2971 2968 2965 2962 2961 2960 2959 2959 2959 2959 2960 2961 2961 2961 2961 2961 2962 2963 2964 2965 2966 2967 2969 2970 2972 2973 2974 2975 2977 2978 2980 2981 2983 2985 2987 2989 2992 2995 2997 3000 3003
3004 3000 2997 2993 2990 2987 2984 2980 2976 2973 2971 2968 2965 2962 2959 2958 2956 2955 2955 2954 2955 2956 2957 2957 2957 2957 2957 2958 2958 2958 2959 2961 2962 2963 2965 2966 2968 2970 2971 2972 2973 2974 2976 2979 2980 2982 2985 2987 2990 2992 2994 2997
3001 2998 2994 2991 2987 2984 2981 2978 2974 2971 2968 2965 2962 2960 2957 2955 2953 2951 2950 2950 2950 2951 2952 2953 2953 2953 2953 2954 2954 2954 2954 2955 2957 2958 2959 2960 2962 2964 2966 2968 2969 2969 2971 2973 2976 2977 2980 2983 2985 2987 2989 2991
2999 2995 2992 2988 2984 2981 2978 2975 2972 2969 2966 2963 2960 2957 2955 2952 2950 2948 2947 2946 2946 2946 2947 2948 2949 2950 2950 2950 2950 2950 2950 2951 2952 2953 2954 2955 2956 2958 2959 2962 2964 2965 2966 2967 2969 2972 2975 2978 2980 2982 2983 2984
2996 2993 2990 2986 2982 2978 2976 2973 2969 2966 2964 2961 2958 2955 2952 2950 2948 2946 2944 2943 2942 2942 2943 2944 2945 2946 2946 2946 2946 2946 2947 2947 2947 2947 2948 2949 2950 2952 2953 2955 2958 2960 2962 2962 2964 2967 2969 2971 2974 2977 2978 2978
2993 2990 2987 2984 2980 2976 2973 2970 2967 2964 2961 2959 2956 2953 2950 2948 2946 2944 2942 2941 2940 2940 2941 2942 2942 2942 2942 2942 2942 2942 2942 2943 2943 2943 2943 2944 2945 2946 2948 2950 2952 2954 2956 2957 2959 2960 2961 2964 2967 2970 2972 2974
2990 2987 2985 2982 2978 2974 2970 2967 2964 2962 2959 2956 2954 2952 2949 2946 2944 2943 2941 2940 2939 2938 2939 2939 2939 2939 2939 2939 2939 2938 2938 2938 2938 2938 2938 2939 2939 2941 2942 2944 2946 2948 2950 2952 2953 2953 2955 2958 2958 2961 2966 2970
2986 2984 2982 2979 2976 2972 2968 2965 2962 2960 2957 2954 2952 2950 2948 2945 2943 2941 2940 2938 2938 2937 2937 2937 2937 2937 2936 2936 2935 2934 2934 2933 2933 2933 2933 2934 2934 2935 2936 2937 2939 2941 2943 2945 2946 2947 2949 2951 2951 2955 2960 2962
2983 2981 2978 2976 2973 2970 2967 2964 2961 2958 2955 2953 2950 2948 2946 2944 2942 2941 2939 2937 2937 2936 2935 2935 2935 2934 2933 2933 2932 2931 2930 2930 2929 2929 2929 2929 2929 2930 2930 2931 2933 2934 2936 2938 2940 2941 2942 2943 2946 2950 2952 2954